TimeEST,TemperatureF,Dew PointF,Humidity,Sea Level PressureIn,VisibilityMPH,Wind Direction,Wind SpeedMPH,Gust SpeedMPH,PrecipitationIn,Events,Conditions,WindDirDegrees,DateUTC
12:53 AM,28.0,26.1,92,30.18,5.0,Calm,Calm,-,N/A,,Clear,0,2012-12-20 05:53:00
1:53 AM,28.9,27.0,92,30.19,5.0,Calm,Calm,-,N/A,,Clear,0,2012-12-20 06:53:00
2:53 AM,30.0,28.0,92,30.21,5.0,Calm,Calm,-,N/A,,Overcast,0,2012-12-20 07:53:00
3:53 AM,28.9,28.0,96,30.21,5.0,WNW,3.5,-,N/A,,Clear,300,2012-12-20 08:53:00
4:53 AM,30.0,28.9,96,30.21,4.0,Calm,Calm,-,N/A,,Clear,0,2012-12-20 09:53:00
5:53 AM,30.0,28.9,96,30.20,4.0,Calm,Calm,-,N/A,,Clear,0,2012-12-20 10:53:00
6:53 AM,28.0,27.0,96,30.20,4.0,Calm,Calm,-,N/A,,Clear,0,2012-12-20 11:53:00
7:06 AM,28.4,26.6,93,30.19,4.0,Calm,Calm,-,N/A,,Scattered Clouds,0,2012-12-20 12:06:00
7:15 AM,28.4,28.4,100,30.19,4.0,Calm,Calm,-,N/A,,Mostly Cloudy,0,2012-12-20 12:15:00
7:40 AM,28.4,28.4,100,30.20,3.0,Calm,Calm,-,N/A,,Scattered Clouds,0,2012-12-20 12:40:00
7:51 AM,28.4,28.4,100,30.20,2.5,Calm,Calm,-,N/A,,Mostly Cloudy,0,2012-12-20 12:51:00
7:53 AM,28.9,28.0,96,30.21,2.5,Calm,Calm,-,N/A,,Mostly Cloudy,0,2012-12-20 12:53:00
8:04 AM,30.2,28.4,93,30.19,3.0,Calm,Calm,-,N/A,,Overcast,0,2012-12-20 13:04:00
8:34 AM,30.2,28.4,93,30.18,2.5,Calm,Calm,-,N/A,,Overcast,0,2012-12-20 13:34:00
8:53 AM,30.9,30.0,96,30.19,3.0,Calm,Calm,-,N/A,,Scattered Clouds,0,2012-12-20 13:53:00
9:53 AM,33.1,30.0,89,30.16,4.0,NE,4.6,-,N/A,,Clear,50,2012-12-20 14:53:00
10:53 AM,35.1,30.9,85,30.12,6.0,Calm,Calm,-,N/A,,Clear,0,2012-12-20 15:53:00
11:53 AM,37.0,30.9,79,30.07,10.0,Calm,Calm,-,N/A,,Clear,0,2012-12-20 16:53:00
12:53 PM,39.9,30.0,68,30.06,10.0,Calm,Calm,-,N/A,,Clear,0,2012-12-20 17:53:00
1:53 PM,39.9,27.0,60,30.01,10.0,ESE,8.1,-,N/A,,Clear,120,2012-12-20 18:53:00
2:53 PM,39.9,27.0,60,30.01,10.0,SSE,8.1,-,N/A,,Clear,150,2012-12-20 19:53:00
3:53 PM,39.9,28.0,63,29.96,10.0,SSE,10.4,20.7,N/A,,Clear,160,2012-12-20 20:53:00
4:53 PM,39.9,28.9,65,29.94,10.0,SSE,12.7,-,0.00,Rain,Light Rain,160,2012-12-20 21:53:00
5:53 PM,37.9,30.9,76,29.92,8.0,South,6.9,16.1,0.03,Rain,Light Rain,170,2012-12-20 22:53:00
6:10 PM,37.4,32.0,81,29.91,9.0,SE,10.4,-,0.00,Rain,Light Rain,140,2012-12-20 23:10:00
6:20 PM,37.4,30.2,75,29.89,6.0,SSE,15.0,27.6,0.01,Rain,Light Rain,150,2012-12-20 23:20:00
6:53 PM,36.0,32.0,86,29.87,5.0,ESE,8.1,-,0.04,Rain,Rain,120,2012-12-20 23:53:00
7:17 PM,37.4,33.8,87,29.85,5.0,SE,8.1,-,0.03,Rain,Rain,130,2012-12-21 00:17:00
7:53 PM,37.9,34.0,86,29.84,6.0,SE,13.8,18.4,0.08,Rain,Rain,140,2012-12-21 00:53:00
8:53 PM,39.0,35.1,86,29.78,5.0,SE,9.2,-,0.10,Rain,Rain,140,2012-12-21 01:53:00
9:53 PM,41.0,36.0,82,29.71,7.0,SSE,8.1,17.3,0.10,Rain,Light Rain,150,2012-12-21 02:53:00
10:53 PM,43.0,39.9,89,29.58,8.0,SE,20.7,33.4,0.09,Rain,Light Rain,130,2012-12-21 03:53:00
11:53 PM,45.0,39.9,82,29.49,10.0,SE,15.0,33.4,0.03,Rain,Light Rain,130,2012-12-21 04:53:00